This demonstration page uses our WeatherBlox Daily Observations layout. Learn more.

Left ArrowRight Arrow

Hourly Observations for November 3, 2019

Temp ( °F °C ) Dew Point ( °F °C ) Humidity (%) Winds ( mph kmh ) Pressure ( in mb ) Visibility ( mi km ) Precip ( " mm )
12:53 am 00:53 Clear 36 2.2 22 -5.6 57 57 W 8 13 30.09 1019 10 16 0.00 0.00
1:53 am 01:53 Clear 36 2.2 21 -6.1 55 55 W 6 9 30.09 1019 10 16 0.00 0.00
1:53 am 01:53 Clear 36 2.2 21 -6.1 55 55 SW 3 6 30.07 1018 10 16 0.00 0.00
2:53 am 02:53 Clear 33 0.6 20 -6.7 58 58 WSW 7 11 30.07 1018 10 16 0.00 0.00
3:53 am 03:53 Clear 32 0 20 -6.7 61 61 WSW 7 11 30.05 1018 10 16 0.00 0.00
4:53 am 04:53 Clear 34 1.1 20 -6.7 56 56 W 5 7 30.04 1017 10 16 0.00 0.00
5:53 am 05:53 Clear 31 -0.6 20 -6.7 64 64 WSW 6 9 30.04 1017 10 16 0.00 0.00
6:53 am 06:53 Clear 31 -0.6 19 -7.2 61 61 Calm 30.02 1017 10 16 0.00 0.00
7:53 am 07:53 Sunny 34 1.1 21 -6.1 59 59 SW 7 11 30.02 1017 10 16 0.00 0.00
8:53 am 08:53 Sunny 40 4.4 24 -4.4 53 53 WSW 5 7 30.01 1016 10 16 0.00 0.00
9:53 am 09:53 Partly Cloudy 47 8.3 23 -5 39 39 SSW 5 7 30.01 1016 10 16 0.00 0.00
10:53 am 10:53 Mostly Cloudy 50 10 22 -5.6 33 33 W 8 13 30.00 1016 10 16 0.00 0.00
11:53 am 11:53 Partly Cloudy 53 11.7 21 -6.1 28 28 VRB 3 6 29.97 1015 10 16 0.00 0.00
12:53 pm 12:53 Partly Cloudy 58 14.4 20 -6.7 23 23 WSW 6 9 29.93 1013 10 16 0.00 0.00
1:53 pm 13:53 Partly Cloudy 60 15.6 22 -5.6 23 23 WSW 9 15 29.89 1012 10 16 0.00 0.00
2:53 pm 14:53 Sunny 63 17.2 20 -6.7 19 19 WSW 12 19 29.87 1012 10 16 0.00 0.00
3:53 pm 15:53 Sunny 62 16.7 19 -7.2 19 19 WSW 8 13 29.87 1011 10 16 0.00 0.00
4:53 pm 16:53 Sunny 60 15.6 21 -6.1 22 22 WSW 5 7 29.88 1012 10 16 0.00 0.00
5:53 pm 17:53 Clear 55 12.8 22 -5.6 28 28 SSW 5 7 29.89 1012 10 16 0.00 0.00
6:53 pm 18:53 Clear 49 9.4 22 -5.6 35 35 SW 6 9 29.91 1013 10 16 0.00 0.00
7:53 pm 19:53 Clear 40 4.4 23 -5 51 51 NW 7 11 29.94 1014 10 16 0.00 0.00
8:53 pm 20:53 Clear 47 8.3 30 -1.1 52 52 N 10 17 29.96 1015 10 16 0.00 0.00
9:53 pm 21:53 Clear 42 5.6 31 -0.6 65 65 N 8 13 29.99 1016 10 16 0.00 0.00
10:53 pm 22:53 Clear 40 4.4 31 -0.6 70 70 N 6 9 30.00 1016 10 16 0.00 0.00
11:53 pm 23:53 Clear 39 3.9 31 -0.6 73 73 N 5 7 30.00 1016 10 16 0.00 0.00

Powered by AerisWeather